Weather History for Moncks Corner, SC

Change the Weather History Date:

Saturday, January 19, 2013

  Actual Average (KCHS) Record (KCHS)
Temperature  
Mean Temperature 50 °F 48 °F  
Max Temperature 62 °F 59 °F 78 °F (1950)
Min Temperature 37 °F 37 °F 16 °F (1976)
Degree Days  
Heating Degree Days 16 17  
Month to date heating degree days 323  
Since 1 July heating degree days 1061  
Cooling Degree Days 0 0  
Month to date cooling degree days 0  
Year to date cooling degree days 0  
Moisture  
Dew Point 35 °F    
Average Humidity 64    
Maximum Humidity 93    
Minimum Humidity 38    
Precipitation  
Precipitation 0.00 in 0.12 in 2.27 in (1991)
Month to date precipitation 2.26  
Year to date precipitation 2.26  
Sea Level Pressure  
Sea Level Pressure 30.36 in    
Wind  
Wind Speed 4 mph (NNE)    
Max Wind Speed 7 mph    
Max Gust Speed -    
Visibility 8 miles    
Events      
T = Trace of Precipitation, MM = Missing Value Source: NWS Daily Summary

Daily Weather History Graph

Daily Weather History Graph

Search for Another Location

Airport:

Trip Planner

Search our weather history database for the weather conditions in past years. The results will help you decide how hot, cold, wet, or windy it might be!

Date:

Astronomy

Jan. 19, 2013 Rise Set
Actual Time 7:22 AM EST 5:39 PM EST
Civil Twilight 6:55 AM EST 6:06 PM EST
Nautical Twilight 6:25 AM EST 6:36 PM EST
Astronomical Twilight 5:55 AM EST 7:06 PM EST
Moon 12:01 PM EST (1/19) 12:59 AM EST (1/19)
Length of Visible Light 11h 10m
Length of Day
10h 17m
First Quarter, 57% of the Moon is Illuminated
Jan 19
First Quarter
Jan 26
Full
Feb 3
Last Quarter
Feb 10
New
Feb 17
First Quarter

Hourly Weather History & Observations

Time (EST) Temp. Windchill Dew Point Humidity Pressure Visibility Wind Dir Wind Speed Gust Speed Precip Events Conditions
12:15 AM 41.0 °F 37.1 °F 28.4 °F 61% 30.49 in 10.0 mi NE 5.8 mph - N/A   Clear
12:35 AM 41.0 °F 37.1 °F 28.4 °F 61% 30.49 in 10.0 mi ENE 5.8 mph - N/A   Scattered Clouds
12:55 AM 42.8 °F 38.6 °F 28.4 °F 57% 30.49 in 10.0 mi ENE 6.9 mph - N/A   Overcast
1:15 AM 42.8 °F 38.6 °F 28.4 °F 57% 30.49 in 10.0 mi ENE 6.9 mph - N/A   Overcast
1:35 AM 42.8 °F 38.6 °F 28.4 °F 57% 30.49 in 10.0 mi NNE 6.9 mph - N/A   Overcast
1:55 AM 44.6 °F 40.7 °F 28.4 °F 53% 30.47 in 10.0 mi NNE 6.9 mph - N/A   Mostly Cloudy
2:15 AM 42.8 °F 39.3 °F 28.4 °F 57% 30.46 in 10.0 mi NNE 5.8 mph - N/A   Scattered Clouds
2:35 AM 42.8 °F 39.3 °F 30.2 °F 61% 30.46 in 10.0 mi NNE 5.8 mph - N/A   Clear
2:55 AM 41.0 °F 38.0 °F 30.2 °F 65% 30.47 in 10.0 mi NE 4.6 mph - N/A   Clear
3:15 AM 41.0 °F 37.1 °F 30.2 °F 65% 30.46 in 10.0 mi NE 5.8 mph - N/A   Clear
3:35 AM 41.0 °F 38.0 °F 28.4 °F 61% 30.46 in 10.0 mi NNE 4.6 mph - N/A   Clear
3:55 AM 41.0 °F 37.1 °F 28.4 °F 61% 30.44 in 10.0 mi NNE 5.8 mph - N/A   Clear
4:15 AM 39.2 °F 37.0 °F 28.4 °F 65% 30.44 in 10.0 mi North 3.5 mph - N/A   Clear
4:35 AM 39.2 °F 37.0 °F 28.4 °F 65% 30.44 in 7.0 mi NNE 3.5 mph - N/A   Clear
4:55 AM 39.2 °F - 28.4 °F 65% 30.44 in 10.0 mi Calm Calm - N/A   Clear
5:15 AM 39.2 °F 37.0 °F 28.4 °F 65% 30.44 in 10.0 mi North 3.5 mph - N/A   Clear
5:35 AM 37.4 °F 34.9 °F 28.4 °F 70% 30.44 in 10.0 mi NNE 3.5 mph - N/A   Clear
5:55 AM 37.4 °F 34.9 °F 28.4 °F 70% 30.45 in 10.0 mi ENE 3.5 mph - N/A   Clear
6:15 AM 37.4 °F 34.9 °F 28.4 °F 70% 30.45 in 7.0 mi NE 3.5 mph - N/A   Clear
6:35 AM 37.4 °F - 28.4 °F 70% 30.45 in 10.0 mi Calm Calm - N/A   Clear
6:55 AM 37.4 °F 33.8 °F 28.4 °F 70% 30.45 in 7.0 mi NE 4.6 mph - N/A   Clear
8:15 AM 37.4 °F 33.8 °F 30.2 °F 75% 30.47 in 10.0 mi ENE 4.6 mph - N/A   Clear
8:35 AM 39.2 °F 34.2 °F 30.2 °F 70% 30.47 in 10.0 mi NE 6.9 mph - N/A   Scattered Clouds
9:15 AM 42.8 °F 38.6 °F 30.2 °F 61% 30.48 in 5.0 mi ENE 6.9 mph - N/A   Haze
9:55 AM 48.2 °F - 28.4 °F 46% 30.48 in 10.0 mi ENE 6.9 mph - N/A   Clear
11:15 AM 55.4 °F - 30.2 °F 38% 30.44 in 7.0 mi East 4.6 mph - N/A   Mostly Cloudy
11:35 AM 55.4 °F - 32.0 °F 41% 30.44 in 5.0 mi North 3.5 mph - N/A   Haze
12:15 PM 55.4 °F - 33.8 °F 44% 30.40 in 7.0 mi North 5.8 mph - N/A   Mostly Cloudy
12:35 PM 57.2 °F - 33.8 °F 41% 30.38 in 7.0 mi ENE 3.5 mph - N/A   Scattered Clouds
12:55 PM 59.0 °F - 35.6 °F 42% 30.36 in 10.0 mi NNE 3.5 mph - N/A   Clear
1:15 PM 59.0 °F - 37.4 °F 45% 30.34 in 10.0 mi NNW 4.6 mph - N/A   Clear
1:35 PM 59.0 °F - 35.6 °F 42% 30.34 in 7.0 mi NW 4.6 mph - N/A   Clear
2:15 PM 59.0 °F - 37.4 °F 45% 30.32 in 10.0 mi NNW 3.5 mph - N/A   Clear
2:35 PM 60.8 °F - 37.4 °F 42% 30.31 in 10.0 mi North 3.5 mph - N/A   Clear
2:55 PM 60.8 °F - 37.4 °F 42% 30.30 in 10.0 mi Calm Calm - N/A   Clear
3:15 PM 62.6 °F - 37.4 °F 39% 30.29 in 10.0 mi Calm Calm - N/A   Clear
3:35 PM 60.8 °F - 39.2 °F 45% 30.29 in 10.0 mi Calm Calm - N/A   Scattered Clouds
3:55 PM 60.8 °F - 39.2 °F 45% 30.28 in 10.0 mi North 3.5 mph - N/A   Scattered Clouds
4:15 PM 59.0 °F - 39.2 °F 48% 30.27 in 7.0 mi Calm Calm - N/A   Clear
4:35 PM 59.0 °F - 39.2 °F 48% 30.26 in 7.0 mi Calm Calm - N/A   Clear
4:55 PM 60.8 °F - 39.2 °F 45% 30.26 in 7.0 mi Calm Calm - N/A   Clear
5:15 PM 59.0 °F - 41.0 °F 51% 30.26 in 10.0 mi Calm Calm - N/A   Clear
5:35 PM 57.2 °F - 41.0 °F 55% 30.26 in 7.0 mi Calm Calm - N/A   Clear
5:55 PM 55.4 °F - 41.0 °F 58% 30.26 in 10.0 mi Calm Calm - N/A   Clear
6:15 PM 51.8 °F - 42.8 °F 71% 30.26 in 10.0 mi Calm Calm - N/A   Clear
6:35 PM 50.0 °F - 42.8 °F 76% 30.27 in 10.0 mi Calm Calm - N/A   Clear
7:15 PM 50.0 °F - 42.8 °F 76% 30.28 in 7.0 mi Calm Calm - N/A   Clear
7:35 PM 48.2 °F - 42.8 °F 82% 30.28 in 7.0 mi Calm Calm - N/A   Clear
7:55 PM 46.4 °F - 42.8 °F 87% 30.28 in 7.0 mi Calm Calm - N/A   Clear
8:15 PM 46.4 °F - 42.8 °F 87% 30.28 in 7.0 mi Calm Calm - N/A   Clear
8:35 PM 46.4 °F - 42.8 °F 87% 30.28 in 7.0 mi Calm Calm - N/A   Clear
8:55 PM 46.4 °F - 42.8 °F 87% 30.28 in 7.0 mi Calm Calm - N/A   Clear
9:15 PM 44.6 °F - 42.8 °F 93% 30.27 in 7.0 mi Calm Calm - N/A   Clear
9:35 PM 46.4 °F - 42.8 °F 87% 30.26 in 7.0 mi Calm Calm - N/A   Clear
9:55 PM 44.6 °F - 42.8 °F 93% 30.26 in 7.0 mi Calm Calm - N/A   Clear
10:15 PM 44.6 °F - 41.0 °F 87% 30.26 in 7.0 mi Calm Calm - N/A   Clear
10:35 PM 44.6 °F - 42.8 °F 93% 30.26 in 7.0 mi Calm Calm - N/A   Clear
10:55 PM 44.6 °F - 42.8 °F 93% 30.26 in 5.0 mi Calm Calm - N/A   Clear
11:15 PM 44.6 °F - 42.8 °F 93% 30.25 in 5.0 mi Calm Calm - N/A   Clear
11:35 PM 44.6 °F - 42.8 °F 93% 30.24 in 5.0 mi Calm Calm - N/A   Clear
11:55 PM 44.6 °F - 42.8 °F 93% 30.24 in 5.0 mi Calm Calm - N/A   Clear